User: anonymous   Login
Location: Unspecified
(0.0000°N, 0.0000°E)
Time: 06:27:15
(UTC+00:00)
Language:

A-11 Canister half - Orbit

View from above orbital plane
View from above orbital plane
View from above satellite
View from above satellite

Ground track
Ground track

The orbit data is extracted from the following two-line orbital elements,

1 00053U 60009E   15147.60034744 -.00000085  00000-0  00000+0 0  9992
2 00053 047.2744 197.0870 0096662 020.3591 340.1013 12.17167000443490
Epoch (UTC): 27 May 2015 14:24:30
Eccentricity: 0.0096662
inclination: 47.2744°
perigee height: 1528 km
apogee height: 1682 km
right ascension of ascending node: 197.0870°
argument of perigee: 20.3591°
revolutions per day: 12.17167000
mean anomaly at epoch: 340.1013°
orbit number at epoch: 44349

The dashed part of the orbit path shows where the satellite is in the earth's shadow,  

DLR